Accueil
METAR-TAF:

METAR-TAF

Aéroports :

Morlaix, France

Aéroport de Morlaix Ploujean

latitude: 48-36N, longitude: 3-49W, altitude: 84 m

Observation

Le bulletin a été fait il y a 36 minutes, à 06:00 UTC
Vent 2 kt de sud/sud-ouest
Température 13°C
Humidité 100%
Pression 1018 hPa
Visibilité: 0300 m
brouillard

METAR: LFRU 240600Z AUTO 21002KT 0300 FG VV/// 13/13 Q1018

Heure: 08:36 (06:36 UTC)


TAF: absent

Observations et prévisions météorologiques de plus de 4000 aéroports (messages METAR et TAF).

Les stations disponibles sont représentées par des disques jaunes et rouges sur la carte.

Passer la souris dessus pour voir le nom de la station.

Cliquer dessus pour voir les observations et prévisions météorologiques.

Pour changer de carte: cliquez sur les boutons verts avec une croix noire pour zoomer, sur le bouton vert avec un tiret pour effectuer un zoom arrière, ou sur les flèches vertes pour les cartes adjacentes.


METAR-TAF: